Location: Unspecified
(41.1637°N, 24.2901°E)
Time: 14:58:05
(UTC+01:00)

ARIANE 6 FM1 Upper Stage - Pass Details

Date: 21 January 2026
Orbit: 522 x 609 km, 62.0° (Epoch: 11 February)

Event Time Altitude Azimuth Distance (km) Brightness Sun altitude
Rises 18:32:03 0° 220° (SW) 2,716 6.8 -23.6°
Reaches altitude 10° 18:34:17 10° 222° (SW) 1,811 5.9 -24.0°
Enters shadow 18:37:55 66° 256° (WSW) 590 2.8 -24.7°
